[[{"header":{"parameterUnit":"m.s-1","parameterCategory":1,"la1":30.2991,"la2":30.254,"lo1":-89.0895,"lo2":-89.0444,"dy":0.0017,"dx":0.0017,"nx":28,"ny":28,"refTime":"2024-05-09T03:00:00:Z","depth":0,"parameterNumber":2,"parameterNumberName":"U-component_of_WINDS"},"data":[0,0,0,0,0,0,0,0,0,0,0,0,0,0,0,0,0,0,0,0,0,0,0,0,0,0,0,0,0,0,0,0,0,0,0,0,0,0,0,0,0,0,0,0,0,0,0,0,0,0,0,0,0,0,0,0,0,0,1.8225,1.8227,0,1.8388,1.839,1.8391,1.8404,1.8402,1.84,1.8398,1.8575,1.8581,1.8588,0,0,0,0,0,0,0,0,0,0,0,0,0,1.7936,1.7941,1.8225,1.8227,1.8229,1.8387,1.839,1.8392,1.8404,1.8402,1.84,1.8398,1.8573,1.858,1.8588,0,0,0,0,0,0,0,0,0,0,0,0,0,1.8077,1.7943,1.8225,1.8254,1.8258,1.8387,1.839,1.8392,1.8405,1.8402,1.8399,1.8397,1.857,1.858,1.8589,1.8703,0,0,1.8618,1.8623,0,0,0,0,0,0,0,0,1.8069,1.8087,1.8248,1.8252,1.8257,1.8372,1.8352,1.8497,1.8405,1.8349,1.8398,1.8395,1.8511,1.8525,1.8562,1.8711,1.8719,1.8619,1.8625,1.8629,1.8632,0,0,0,0,0,0,0,1.8059,1.808,1.829,1.825,1.8256,1.8263,1.828,1.838,1.8444,1.8354,1.8355,1.8374,1.8513,1.8552,1.8566,1.8721,1.8619,1.8628,1.8634,1.8637,1.8975,1.8978,0,0,0,0,0,0,1.8042,1.8072,1.8285,1.8295,1.8154,1.827,1.8289,1.8338,1.8442,1.8455,1.8376,1.8374,1.8537,1.8555,1.8572,1.8713,1.8629,1.8638,1.8644,1.8972,1.8975,1.8979,0,0,0,0,0,0,1.8036,1.8061,1.8278,1.8184,1.8212,1.8278,1.8333,1.8343,1.8383,1.8459,1.8471,1.8404,1.8536,1.8559,1.867,1.8719,1.8643,1.8651,1.8968,1.8973,1.8977,1.8995,0,0,0,0,0,0,1.8027,1.8058,1.81,1.8184,1.8217,1.837,1.8336,1.8348,1.8398,1.8397,1.8489,1.8501,1.8535,1.8656,1.8679,1.8731,1.8659,1.8964,1.897,1.8976,1.8991,1.9,1.9008,0,0,0,0,0,1.8017,1.81,1.8102,1.8127,1.8269,1.8373,1.8391,1.8426,1.8402,1.8446,1.8495,1.8498,1.871,1.8667,1.8694,1.8749,1.8961,1.8968,1.8975,1.8987,1.8998,1.9008,0,0,0,0,0,0,1.8022,1.8112,1.8114,1.8226,1.8291,1.8374,1.843,1.8437,1.8513,1.8509,1.8552,1.8573,1.8683,1.8728,1.8678,1.8866,1.8833,1.8846,1.8833,1.8844,1.8853,1.8841,1.8667,0,0,0,0,0,1.8036,1.8109,1.8185,1.8277,1.8309,1.8364,1.841,1.8431,1.8502,1.853,1.8588,1.8659,1.8742,1.8796,1.8876,1.8997,1.9019,1.9049,1.9058,1.9064,1.9076,1.9145,1.916,1.9003,1.9003,1.9002,0,0,1.8066,1.8124,1.8168,1.8279,1.8332,1.841,1.8387,1.8471,1.853,1.8544,1.8652,1.8697,1.878,1.8897,1.8951,1.8937,1.9124,1.9074,1.9078,1.9086,1.9154,1.9169,1.9182,1.9008,1.9007,1.9006,0,0,1.8161,1.8211,1.8293,1.8347,1.8426,1.8462,1.8482,1.8564,1.8594,1.8702,1.8714,1.8788,1.8929,1.8988,1.9036,1.9154,1.9162,1.918,1.9227,1.9294,1.9306,1.9318,1.9361,1.9377,1.9191,1.9191,1.9191,0,1.8189,1.8304,1.8336,1.8419,1.8469,1.8482,1.8568,1.862,1.8723,1.8758,1.874,1.8918,1.8975,1.9106,1.9135,1.9173,1.92,1.917,1.9301,1.9313,1.9324,1.9366,1.9383,1.9192,1.9192,1.9192,1.9192,0,1.8336,1.8416,1.8474,1.8569,1.8626,1.871,1.8758,1.8813,1.8829,1.8868,1.8981,1.9049,1.9144,1.9177,1.9195,1.9312,1.9301,1.9291,1.926,1.934,1.9381,1.9397,1.9195,1.9194,1.9194,1.9193,0,0,1.8438,1.855,1.8571,1.8615,1.8705,1.8769,1.8856,1.8945,1.8992,1.9063,1.9139,1.9258,1.925,1.9305,1.933,1.9389,1.9481,1.9373,1.9376,1.9392,1.9617,1.9624,1.9642,1.9486,1.9489,1.9492,1.9611,0,1.8544,1.8694,1.8726,1.8857,1.8933,1.8948,1.9024,1.9089,1.9128,1.9201,1.9247,1.9331,1.9313,1.9347,1.9406,1.9457,1.9527,1.9449,1.956,1.9563,1.9539,1.9663,1.967,1.9779,1.9627,1.9629,1.9631,0,1.8686,1.8758,1.8896,1.8976,1.9009,1.9076,1.9162,1.923,1.9306,1.9331,1.9392,1.9412,1.9506,1.9469,1.9602,1.9548,1.9596,1.9628,1.9633,1.9646,1.9602,1.968,1.9814,1.9831,1.9656,1.9654,1.9653,0,1.8748,1.888,1.8979,1.9017,1.9113,1.916,1.9203,1.9275,1.9327,1.9404,1.9439,1.9527,1.9575,1.9644,1.9688,1.9657,1.9818,1.9784,1.9844,1.9843,1.9878,1.9875,2.0023,1.9907,1.9907,1.9907,1.9906,0,1.8863,1.8947,1.9008,1.907,1.9166,1.9204,1.9299,1.9343,1.9407,1.948,1.95,1.9568,1.9621,1.9699,1.9734,1.984,1.9862,1.9887,1.9896,1.9885,1.9882,1.9918,1.9912,1.9911,1.991,1.9909,1.9908,0,1.8948,1.8992,1.9102,1.9183,1.9206,1.9273,1.9345,1.9407,1.9447,1.954,1.9564,1.9628,1.972,1.9771,1.9887,1.9911,2.003,2.0034,2.0003,2.0007,2.0064,2.0058,2.024,2.0267,2.0133,2.0134,2.0135,0,1.9018,1.9083,1.9171,1.9219,1.9262,1.9341,1.9394,1.9435,1.9491,1.9582,1.9634,1.9727,1.9803,1.995,2.001,2.01,2.0107,2.0165,2.0121,2.0109,2.0109,2.0105,2.0113,2.0172,2.0174,2.0175,2.0175,0,1.9138,1.9157,1.9231,1.9314,1.9376,1.9443,1.9511,1.9551,1.9604,1.9666,1.9758,1.9817,1.9935,2.0028,2.0123,2.0171,2.0184,2.0189,2.0208,2.0198,2.0178,2.0191,2.0025,2.0184,2.0183,2.0183,2.0182,2.0182,1.9219,1.9278,1.9349,1.9431,1.9486,1.9549,1.9611,1.9659,1.9736,1.9833,1.9854,1.9952,2.003,2.0157,2.0208,2.0289,2.0278,2.0305,2.0312,2.0318,2.0321,2.0164,2.0306,2.0306,2.0306,2.0306,2.0306,0,1.9341,1.9387,1.9463,1.9555,1.9621,1.9624,1.9699,1.9755,1.984,1.991,1.9984,2.0092,2.0182,2.0249,2.0342,2.0394,2.0402,2.0417,2.0414,2.0426,2.0325,2.0299,2.0409,2.0409,2.0409,2.0409,2.0409,2.0409,1.9412,1.9511,1.9539,1.9668,1.9715,1.9809,1.9852,1.9912,1.9967,2.0086,2.016,2.0202,2.0271,2.037,2.0455,2.0472,2.0506,2.0521,2.054,2.0444,2.0433,2.0422,2.0399,2.0528,2.0528,2.0634,2.0635,2.0636]},{"header":{"parameterUnit":"m.s-1","parameterCategory":1,"la1":30.2991,"la2":30.254,"lo1":-89.0895,"lo2":-89.0444,"dy":0.0017,"dx":0.0017,"nx":28,"ny":28,"refTime":"2024-05-09T03:00:00:Z","depth":0,"parameterNumber":3,"parameterNumberName":"V-component_of_WINDS"},"data":[0,0,0,0,0,0,0,0,0,0,0,0,0,0,0,0,0,0,0,0,0,0,0,0,0,0,0,0,0,0,0,0,0,0,0,0,0,0,0,0,0,0,0,0,0,0,0,0,0,0,0,0,0,0,0,0,0,0,2.6763,2.6764,0,2.6903,2.6904,2.6906,2.6889,2.6886,2.6884,2.6882,2.7019,2.7024,2.703,0,0,0,0,0,0,0,0,0,0,0,0,0,2.647,2.6476,2.6762,2.6764,2.6766,2.6903,2.6904,2.6906,2.6889,2.6886,2.6884,2.6881,2.7017,2.7024,2.7031,0,0,0,0,0,0,0,0,0,0,0,0,0,2.6602,2.6478,2.6762,2.6774,2.6776,2.6902,2.6905,2.6907,2.689,2.6886,2.6883,2.688,2.7015,2.7023,2.7032,2.7153,0,0,2.7058,2.7062,0,0,0,0,0,0,0,0,2.6595,2.6613,2.677,2.6773,2.6776,2.6875,2.6852,2.6989,2.6891,2.6846,2.6882,2.6878,2.6973,2.6985,2.7019,2.7159,2.7165,2.7059,2.7064,2.7068,2.707,0,0,0,0,0,0,0,2.6586,2.6607,2.6818,2.6773,2.6776,2.6769,2.6784,2.6878,2.6927,2.685,2.6849,2.6866,2.6974,2.701,2.7022,2.7167,2.7059,2.7066,2.7071,2.7075,2.7407,2.7411,0,0,0,0,0,0,2.6575,2.66,2.6813,2.6822,2.6676,2.6777,2.6794,2.6847,2.6926,2.6935,2.6869,2.6865,2.6997,2.7012,2.7026,2.7169,2.7068,2.7076,2.7081,2.7404,2.7408,2.7412,0,0,0,0,0,0,2.6569,2.6594,2.6808,2.6711,2.6737,2.6786,2.6845,2.6851,2.6887,2.694,2.6948,2.6898,2.6995,2.7014,2.712,2.7174,2.708,2.7087,2.7399,2.7405,2.741,2.7457,0,0,0,0,0,0,2.656,2.6592,2.6641,2.6712,2.6743,2.6902,2.6848,2.6856,2.6903,2.6899,2.6969,2.6977,2.6994,2.7108,2.7129,2.7184,2.7094,2.7395,2.7402,2.7408,2.7451,2.7464,2.7475,0,0,0,0,0,2.655,2.6648,2.6643,2.6669,2.6805,2.6905,2.6923,2.6942,2.6908,2.6955,2.6988,2.6975,2.7165,2.7119,2.7143,2.7201,2.7391,2.74,2.7408,2.7446,2.7461,2.7474,0,0,0,0,0,0,2.658,2.6658,2.6653,2.6778,2.6836,2.6902,2.6963,2.6958,2.7025,2.7018,2.7037,2.7052,2.7159,2.7191,2.7138,2.7319,2.7273,2.7286,2.7294,2.7309,2.732,2.7309,2.7101,0,0,0,0,0,2.6602,2.668,2.6742,2.6846,2.6875,2.6914,2.6959,2.6969,2.7028,2.7051,2.7093,2.7148,2.722,2.7267,2.7336,2.7457,2.7469,2.7508,2.752,2.7529,2.7539,2.76,2.7617,2.7439,2.7439,2.7439,0,0,2.6647,2.6699,2.6746,2.6853,2.6899,2.6975,2.6935,2.7019,2.7074,2.7063,2.7165,2.7198,2.7261,2.7373,2.7425,2.7403,2.7591,2.754,2.7547,2.7552,2.761,2.7627,2.7642,2.7445,2.7444,2.7443,0,0,2.6766,2.6816,2.6905,2.6952,2.7021,2.7046,2.7068,2.7135,2.7156,2.726,2.7252,2.7317,2.7442,2.7486,2.7524,2.7657,2.7646,2.7679,2.7739,2.7798,2.7812,2.7824,2.7867,2.7883,2.769,2.769,2.769,0,2.6812,2.693,2.6951,2.7035,2.708,2.7076,2.7164,2.7207,2.7295,2.7325,2.73,2.7454,2.7496,2.7616,2.7649,2.7682,2.7703,2.767,2.7809,2.7822,2.7833,2.7874,2.7891,2.7694,2.7693,2.7693,2.7693,0,2.698,2.7061,2.7125,2.7211,2.7263,2.7349,2.738,2.7431,2.7435,2.7461,2.7564,2.7615,2.7692,2.7722,2.7727,2.7842,2.7826,2.7805,2.7758,2.7853,2.7891,2.7908,2.7698,2.7697,2.7696,2.7695,0,0,2.7122,2.7218,2.724,2.7277,2.7353,2.7414,2.7498,2.7575,2.7616,2.7676,2.7744,2.7848,2.7828,2.7872,2.7882,2.7935,2.8031,2.7907,2.7908,2.7924,2.8154,2.8166,2.8185,2.8025,2.8028,2.8031,2.8147,0,2.7245,2.7395,2.7416,2.7547,2.7619,2.7615,2.7687,2.7739,2.7766,2.7828,2.7857,2.7929,2.79,2.7925,2.7978,2.8008,2.8076,2.8,2.8083,2.8086,2.8064,2.8206,2.822,2.8328,2.8163,2.8166,2.8168,0,2.7409,2.7474,2.7613,2.7675,2.7706,2.7771,2.7841,2.7903,2.7961,2.7976,2.8024,2.8026,2.8108,2.8061,2.8172,2.812,2.8155,2.8174,2.8179,2.8184,2.813,2.821,2.8363,2.8377,2.8192,2.819,2.8189,0,2.7492,2.7615,2.7713,2.7746,2.7822,2.7867,2.79,2.7955,2.7998,2.8059,2.8087,2.8156,2.8193,2.8245,2.8264,2.8229,2.8372,2.8327,2.8383,2.8382,2.8411,2.8408,2.8567,2.844,2.844,2.844,2.8439,0,2.7625,2.7709,2.7751,2.7811,2.7903,2.7925,2.8014,2.8046,2.8094,2.8156,2.8157,2.8216,2.824,2.8301,2.8317,2.8403,2.8421,2.8432,2.8435,2.843,2.8428,2.8451,2.8442,2.8444,2.8443,2.8442,2.8441,0,2.7733,2.7765,2.787,2.7934,2.7952,2.8017,2.8069,2.8125,2.8151,2.823,2.8249,2.8289,2.836,2.8386,2.8473,2.8483,2.8582,2.858,2.8563,2.8563,2.8615,2.8608,2.8791,2.8814,2.8676,2.8677,2.8678,0,2.7814,2.7878,2.7949,2.7992,2.8027,2.8096,2.8141,2.8164,2.821,2.8278,2.8325,2.8396,2.8455,2.8569,2.8603,2.8668,2.8665,2.8725,2.8675,2.8667,2.8661,2.8655,2.8659,2.8733,2.8734,2.8735,2.8736,0,2.7952,2.7964,2.803,2.8101,2.8154,2.821,2.8265,2.8299,2.8329,2.838,2.8454,2.85,2.8588,2.8657,2.8724,2.8755,2.8749,2.8752,2.8767,2.8762,2.8747,2.8751,2.8584,2.8747,2.8746,2.8745,2.8744,2.8744,2.8046,2.8101,2.8159,2.8231,2.8274,2.8324,2.8379,2.8411,2.8474,2.8549,2.8558,2.8636,2.8688,2.8777,2.8811,2.887,2.8853,2.8877,2.8882,2.8887,2.8888,2.8741,2.8883,2.8882,2.8882,2.8882,2.8882,0,2.8181,2.8217,2.8284,2.8359,2.8415,2.8408,2.8467,2.8512,2.8582,2.8632,2.869,2.8772,2.8839,2.8879,2.8944,2.8984,2.8982,2.9,2.8995,2.9001,2.8902,2.888,2.9,2.9,2.8999,2.8999,2.8999,2.8999,2.8257,2.8349,2.8367,2.8479,2.8515,2.8593,2.8626,2.8671,2.8711,2.8804,2.886,2.8886,2.893,2.8999,2.9059,2.9068,2.909,2.9109,2.9116,2.9021,2.9009,2.8997,2.8976,2.9114,2.9115,2.921,2.9211,2.9212]}]]